Almeria, Spain

8:46 AM CEST en Junio 24, 2018 (GMT +0200)
Almeria

Tiempo Historia de LEAM - Junio, 2018

Change the Weather History Date:

Jueves, Junio 14, 2018

  Actual Average Record
Temperature  
Temperatura media 69 ° F -  
Temperatura máxima 76 ° F 80 ° F 95 ° F (2013)
Temperatura mínima 62 ° F 67 ° F 60 ° F (2011)
Cooling Degree Days 4    
Growing Degree Days 19 (Base 50)    
Moisture  
Punto de rocío 63 ° F    
Average Humidity 78    
Maximum Humidity 94    
Minimum Humidity 56    
Precipitación  
Precipitación 0.00 pul 0.01 pul - ()
Presión al nivel del mar  
Presión al nivel del mar 29.93 pul    
Viento  
Velocidad del viento 4 mph ()    
Velocidad máxima del viento 13 mph    
Max Gust Speed -    
Visibilidad 9.2 Millas    
Eventos      
Averages and records for this station are not official NWS values.
T = Trace of Precipitation, MM = Missing Value Source: Averaged Metar Reports

Daily Weather History Graph

Daily Weather History Graph

Search for Another Location

Airport or City:

Astronomía

Jun. 14, 2018 Salida Puesta
Hora real 6:49 AM CEST 9:29 PM CEST
Crepúsculo civil 6:19 AM CEST 10:00 PM CEST
Crepúsculo náutico 5:40 AM CEST 10:38 PM CEST
Crepúsculo astronómico 4:57 AM CEST 11:21 PM CEST
Luna 7:31 AM CEST (6/14) 10:16 PM CEST (6/14)
Horas de luz 15h 41m
Horas de luz
14h 40m
Luna nueva, 1% of the Moon is Illuminated
Jun 14
Luna nueva
Jun 20
Cuarto creciente
Jun 28
Luna llena
Jul 6
Cuarto menguante
Jul 13
Nueva

Hourly Weather History & Observations

Hora (CEST) Temp. Punto de rocío Humedad Presión Visibilidad Wind Dir Velocidad del viento Velocidad de ráfagas Precip Eventos Condiciones
12:00 AM 66 ° F 62 ° F 85% 29.96 pul - Este 3.5 mph - -  
12:00 AM 66.2 ° F 60.8 ° F 83% 29.95 pul 6.2 mi Este 3.5 mph - N/A   Desconocido
12:30 AM 66.2 ° F 62.6 ° F 88% 29.95 pul 6.2 mi Este 4.6 mph - N/A   Desconocido
1:00 AM 65 ° F 62 ° F 87% 29.95 pul - Este 4.6 mph - -  
1:00 AM 64.4 ° F 60.8 ° F 88% 29.95 pul 6.2 mi Este 4.6 mph - N/A   Desconocido
1:30 AM 64.4 ° F 60.8 ° F 88% 29.95 pul 6.2 mi ESE 3.5 mph - N/A   Desconocido
2:00 AM 64 ° F 62 ° F 89% 29.94 pul - Este 2.3 mph - -  
2:00 AM 64.4 ° F 60.8 ° F 88% 29.92 pul 6.2 mi Variable 2.3 mph - N/A   Desconocido
2:30 AM 64.4 ° F 60.8 ° F 88% 29.92 pul 6.2 mi NE 3.5 mph - N/A   Desconocido
3:00 AM 64 ° F 62 ° F 90% 29.93 pul - SE 4.6 mph - -  
3:30 AM 64.4 ° F 60.8 ° F 88% 29.92 pul 6.2 mi Sur 3.5 mph - N/A   Desconocido
4:00 AM 64.4 ° F 62.6 ° F 94% 29.92 pul 6.2 mi Variable 2.3 mph - N/A   Desconocido
4:30 AM 62.6 ° F 60.8 ° F 94% 29.92 pul 6.2 mi Este 3.5 mph - N/A   Desconocido
5:00 AM 63 ° F 61 ° F 92% 29.92 pul 16 mi Este 3.5 mph - -   Nubes dispersas
5:00 AM 64.4 ° F 60.8 ° F 88% 29.92 pul 6.2 mi Este 2.3 mph - N/A   Parcialmente nublado
5:30 AM 64.4 ° F 60.8 ° F 88% 29.92 pul 6.2 mi Este 3.5 mph - N/A   Parcialmente nublado
6:00 AM 62.6 ° F 60.8 ° F 94% 29.92 pul 6.2 mi Variable 2.3 mph - N/A   Parcialmente nublado
6:30 AM 64.4 ° F 60.8 ° F 88% 29.92 pul 6.2 mi ENE 1.2 mph - N/A   Parcialmente nublado
7:00 AM 62.6 ° F 57.2 ° F 82% 29.92 pul 6.2 mi ENE 4.6 mph - N/A   Parcialmente nublado
7:30 AM 64.4 ° F 60.8 ° F 88% 29.92 pul 6.2 mi Este 3.5 mph - N/A   Parcialmente nublado
8:00 AM 66 ° F 62 ° F 82% 29.94 pul 19 mi SE 3.5 mph - -   Nubes dispersas
8:00 AM 66.2 ° F 60.8 ° F 83% 29.92 pul 6.2 mi ESE 3.5 mph - N/A   Parcialmente nublado
8:30 AM 66.2 ° F 62.6 ° F 88% 29.92 pul 6.2 mi Variable 1.2 mph - N/A   Parcialmente nublado
9:00 AM 71 ° F 63 ° F 69% 29.94 pul - SO 2.3 mph - -  
9:00 AM 69.8 ° F 60.8 ° F 73% 29.92 pul - Sin viento Sin viento - N/A   Despejado
9:30 AM 68.0 ° F 60.8 ° F 78% 29.92 pul - SSO 4.6 mph - N/A   Despejado
10:00 AM 70 ° F 63 ° F 73% 29.94 pul - SSO 6.9 mph - -  
10:00 AM 68.0 ° F 62.6 ° F 83% 29.95 pul - SSO 5.8 mph - N/A   Despejado
10:30 AM 68.0 ° F 62.6 ° F 83% 29.95 pul - SSO 5.8 mph - N/A   Despejado
11:00 AM 71 ° F 63 ° F 70% 29.94 pul 19 mi SO 6.9 mph - -   Nubes dispersas
11:00 AM 69.8 ° F 62.6 ° F 78% 29.92 pul - SSO 5.8 mph - N/A   Despejado
11:30 AM 69.8 ° F 62.6 ° F 78% 29.95 pul - SO 5.8 mph - N/A   Despejado
12:00 PM 71.6 ° F 62.6 ° F 73% 29.95 pul - SO 6.9 mph - N/A   Despejado
12:30 PM 71.6 ° F 62.6 ° F 73% 29.95 pul - SSO 9.2 mph - N/A   Despejado
1:00 PM 74 ° F 64 ° F 63% 29.95 pul - SO 12.7 mph - -  
1:00 PM 73.4 ° F 62.6 ° F 69% 29.95 pul - SO 11.5 mph - N/A   Despejado
1:30 PM 73.4 ° F 64.4 ° F 73% 29.95 pul - SO 12.7 mph - N/A   Despejado
2:00 PM 73 ° F 65 ° F 68% 29.95 pul 19 mi SO 11.5 mph - -   Nubes dispersas
2:00 PM 71.6 ° F 64.4 ° F 78% 29.95 pul - SO 11.5 mph - N/A   Despejado
2:30 PM 71.6 ° F 62.6 ° F 73% 29.95 pul - SO 10.4 mph - N/A   Despejado
3:00 PM 73 ° F 64 ° F 67% 29.94 pul - SSO 8.1 mph - -  
3:00 PM 71.6 ° F 62.6 ° F 73% 29.92 pul - SSO 8.1 mph - N/A   Despejado
3:30 PM 69.8 ° F 62.6 ° F 78% 29.92 pul - SSO 5.8 mph - N/A   Despejado
4:00 PM 73 ° F 65 ° F 70% 29.93 pul - SSO 5.8 mph - -  
4:00 PM 71.6 ° F 64.4 ° F 78% 29.92 pul - SSO 4.6 mph - N/A   Despejado
4:30 PM 71.6 ° F 64.4 ° F 78% 29.92 pul - Variable 3.5 mph - N/A   Despejado
5:00 PM 75 ° F 64 ° F 59% 29.91 pul 19 mi SO 4.6 mph - -   Despejado
5:00 PM 73.4 ° F 62.6 ° F 69% 29.92 pul - SO 3.5 mph - N/A   Despejado
5:30 PM 73.4 ° F 62.6 ° F 69% 29.89 pul - SO 4.6 mph - N/A   Despejado
6:00 PM 76 ° F 63 ° F 56% 29.90 pul - SSO 3.5 mph - -  
6:00 PM 75.2 ° F 62.6 ° F 65% 29.89 pul - SSO 3.5 mph - N/A   Despejado
6:30 PM 73.4 ° F 60.8 ° F 65% 29.89 pul - SSO 3.5 mph - N/A   Despejado
7:00 PM 75 ° F 64 ° F 60% 29.90 pul - Sur 4.6 mph - -  
7:00 PM 73.4 ° F 62.6 ° F 69% 29.89 pul - Sur 3.5 mph - N/A   Despejado
7:30 PM 71.6 ° F 66.2 ° F 83% 29.89 pul - SSE 4.6 mph - N/A   Despejado
8:00 PM 71 ° F 66 ° F 78% 29.91 pul 19 mi SSE 4.6 mph - -   Despejado
8:30 PM 69.8 ° F 64.4 ° F 83% 29.89 pul - SO 3.5 mph - N/A   Despejado
9:00 PM 71 ° F 64 ° F 74% 29.92 pul - Oeste 4.6 mph - -  
9:00 PM 69.8 ° F 64.4 ° F 83% 29.92 pul - OSO 4.6 mph - N/A   Despejado
9:30 PM 71.6 ° F 64.4 ° F 78% 29.92 pul - Oeste 6.9 mph - N/A   Despejado
10:00 PM 71.6 ° F 62.6 ° F 73% 29.92 pul - ONO 3.5 mph - N/A   Despejado
10:30 PM 71.6 ° F 62.6 ° F 73% 29.95 pul - Oeste 3.5 mph - N/A   Despejado
11:00 PM 69.8 ° F 62.6 ° F 78% 29.95 pul 6.2 mi OSO 2.3 mph - N/A   Desconocido
11:30 PM 71.6 ° F 62.6 ° F 73% 29.95 pul 6.2 mi Variable 2.3 mph - N/A   Desconocido